Location: Ballard
(38.3614°N, 94.1431°W)
Time: 14:37:13
(UTC-05:00)

Envisat - Visible Passes

Search period start: 20 March 2019 00:00
Search period end: 30 March 2019 00:00
Orbit: 764 x 766 km, 98.2° (Epoch: 19 March)

Date Brightness Start Highest point End Pass type
(mag) Time Alt. Az. Time Alt. Az. Time Alt. Az.
20 Mar 3.0 19:52:43 10° SSE 19:57:48 86° ENE 20:02:54 10° NNW visible
21 Mar 5.4 20:56:18 10° SW 21:00:17 23° W 21:04:16 10° NW visible
22 Mar 3.9 20:18:24 10° S 20:23:20 53° W 20:28:19 10° NNW visible
23 Mar 6.0 21:23:57 10° WSW 21:26:04 12° W 21:28:11 10° WNW visible
24 Mar 5.0 20:44:36 10° SSW 20:48:59 29° W 20:53:23 10° NW visible
25 Mar 3.4 20:07:04 10° S 20:12:06 68° WSW 20:17:11 10° NNW visible
26 Mar 5.8 21:11:36 10° SW 21:14:44 16° W 21:17:52 10° NW visible
27 Mar 4.6 20:33:02 10° SSW 20:37:42 37° W 20:42:25 10° NNW visible
28 Mar 3.1 19:55:49 10° SSE 20:00:53 86° WSW 20:06:00 10° NNW visible
29 Mar 5.6 20:59:38 10° SW 21:03:24 21° W 21:07:12 10° NW visible
